Skip Page Navigation
NASA JPL Caltech
NASA Logo - Jet Propulsion Laboratory + View the NASA Portal
+ Near-Earth Object (NEO) Program
Search JPL
JPL Home Earth Solar System Stars & Galaxies Technology
JPL Solar System Dynamics
BODIES ORBITS EPHEMERIDES TOOLS PHYSICAL DATA DISCOVERY FAQ SITE MAP
JPL Small-Body Database Browser
Search: [ help ]  
(2009 VZ39)
Classification: Apollo [NEO]          SPK-ID: 3476526
Ephemeris | Orbit Diagram | Orbital Elements | Physical Parameters | Close-Approach Data ]

[ hide orbit diagram ]
Orbit Diagram
Note: Make sure you have Java enabled on your browser to see the applet. This applet is provided as a 3D orbit visualization tool. The applet was implemented using 2-body methods, and hence should not be used for determining accurate long-term trajectories (over several years or decades) or planetary encounter circumstances. For accurate long-term ephemerides, please instead use our Horizons system.
Orbit Viewer

Additional Notes: the orbits shown in the applet are color coded. The planets are white lines, and the asteroid/comet is a blue line. The bright white line indicates the portion of the orbit that is above the ecliptic plane, and the darker portion is below the ecliptic plane. Likewise for the asteroid/comet orbit, the light blue indicates the portion above the ecliptic plane, and the dark blue the portion below the ecliptic plane.

Orbit Viewer applet originally written and kindly provided by Osamu Ajiki (AstroArts), and further modified by Ron Baalke (JPL).


Orbital Elements at Epoch 2455145.5 (2009-Nov-10.0) TDB
Reference: JPL 5 (heliocentric ecliptic J2000)
 Element Value Uncertainty (1-sigma)   Units 
e .3824289768095491 0.27302  
a 1.482775595865462 0.59136 AU
q .9157192419004636 0.041211 AU
i 2.521514106527071 2.739 deg
node 52.51662340202265 6.6698 deg
peri 40.80530469486902 3.3983 deg
M 339.7893949072443 15.085 deg
tp 2455182.524430474458
(2009-Dec-17.02443047)
6.3428 JED
period 659.4950972339982
1.81
394.53
1.08
d
yr
n .5458721399292934 0.32656 deg/d
Q 2.04983194983046 0.81752 AU
  Orbit Determination Parameters
   # obs. used (total)      8  
   first obs. used      2009-11-10  
   last obs. used      2009-11-10  
   planetary ephem.      DE405  
   SB-pert. ephem.      SB405-CPV-2  
   condition code      9  
   fit RMS      .43567  
   data source      ORB  
   producer      Otto Matic  
   solution date      2011-Sep-14 20:47:07  

Additional Information
 Earth MOID = .00172115 AU 
 T_jup = 4.495 
[ show covariance matrix ]

Ephemeris | Orbit Diagram | Orbital Elements | Physical Parameters | Close-Approach Data ]

Physical Parameter Table
Parameter Symbol Value Units Sigma Reference Notes
absolute magnitude H 28.065 mag .20954 5 autocmod 2.5a

[ show close-approach data ]
Ephemeris | Orbit Diagram | Orbital Elements | Physical Parameters | Close-Approach Data ]
ABOUT SSD CREDITS/AWARDS PRIVACY/COPYRIGHT GLOSSARY LINKS
FirstGov 2013-May-22 05:50 UT
(server date/time)  
NASA Home Page
Site Manager:   Donald K. Yeomans
Webmaster  Alan B. Chamberlin